Time,TemperatureF,DewpointF,PressureIn,WindDirection,WindDirectionDegrees,WindSpeedMPH,WindSpeedGustMPH,Humidity,HourlyPrecipIn,Conditions,Clouds,dailyrainin,SoftwareType,DateUTC
2013-03-17 00:00:00,46.2,45.9,29.88,SSW,202,0.0,0.0,99,0.00,,,0.00,Wunderground v.1.15,2013-03-17 04:00:00,
2013-03-17 00:10:00,48.9,48.6,29.88,SSW,206,0.0,0.0,99,0.00,,,0.00,Wunderground v.1.15,2013-03-17 04:10:00,
2013-03-17 00:15:00,49.6,49.3,29.88,SSW,213,1.0,6.0,99,0.00,,,0.00,Wunderground v.1.15,2013-03-17 04:15:00,
2013-03-17 00:20:00,51.6,50.8,29.88,WSW,252,3.0,5.0,97,0.00,,,0.00,Wunderground v.1.15,2013-03-17 04:20:00,
2013-03-17 00:30:00,52.9,49.7,29.87,SW,218,4.0,4.0,89,0.00,,,0.00,Wunderground v.1.15,2013-03-17 04:30:00,
2013-03-17 00:35:00,52.8,49.6,29.87,SW,227,3.0,4.0,89,0.00,,,0.00,Wunderground v.1.15,2013-03-17 04:35:00,
2013-03-17 00:45:00,53.2,49.1,29.87,SW,227,2.0,2.0,86,0.00,,,0.00,Wunderground v.1.15,2013-03-17 04:45:00,
2013-03-17 00:50:00,53.3,49.2,29.87,WSW,244,2.0,2.0,86,0.00,,,0.00,Wunderground v.1.15,2013-03-17 04:50:00,
2013-03-17 01:00:00,54.5,49.8,29.88,NNW,342,2.0,7.0,84,0.00,,,0.00,Wunderground v.1.15,2013-03-17 05:00:00,
2013-03-17 01:10:00,55.1,49.4,29.88,WSW,239,1.0,1.0,81,0.00,,,0.00,Wunderground v.1.15,2013-03-17 05:10:00,
2013-03-17 01:15:00,55.1,49.4,29.87,SW,228,1.0,1.0,81,0.00,,,0.00,Wunderground v.1.15,2013-03-17 05:15:00,
2013-03-17 01:20:00,54.8,49.1,29.87,WNW,296,0.0,1.0,81,0.00,,,0.00,Wunderground v.1.15,2013-03-17 05:20:00,
2013-03-17 01:25:00,54.7,49.3,29.87,West,277,0.0,1.0,82,0.00,,,0.00,Wunderground v.1.15,2013-03-17 05:25:00,
2013-03-17 01:30:00,54.5,48.8,29.86,West,278,0.0,0.0,81,0.00,,,0.00,Wunderground v.1.15,2013-03-17 05:30:00,
2013-03-17 01:40:00,54.2,48.5,29.86,West,277,0.0,0.0,81,0.00,,,0.00,Wunderground v.1.15,2013-03-17 05:40:00,
2013-03-17 01:45:00,54.2,48.5,29.86,SSW,203,0.0,0.0,81,0.00,,,0.00,Wunderground v.1.15,2013-03-17 05:45:00,
2013-03-17 01:55:00,52.6,47.6,29.87,SSW,203,0.0,0.0,83,0.00,,,0.00,Wunderground v.1.15,2013-03-17 05:55:00,
2013-03-17 02:00:00,51.3,46.9,29.87,SSW,204,0.0,0.0,85,0.00,,,0.00,Wunderground v.1.15,2013-03-17 06:00:00,
2013-03-17 02:10:00,49.8,46.4,29.87,SSW,204,0.0,0.0,88,0.00,,,0.00,Wunderground v.1.15,2013-03-17 06:10:00,
2013-03-17 02:20:00,49.6,46.8,29.87,SSW,204,0.0,0.0,90,0.00,,,0.00,Wunderground v.1.15,2013-03-17 06:20:00,
2013-03-17 02:30:00,50.4,47.6,29.87,SSW,204,0.0,0.0,90,0.00,,,0.00,Wunderground v.1.15,2013-03-17 06:30:00,
2013-03-17 02:35:00,50.5,47.7,29.87,SSW,204,0.0,0.0,90,0.00,,,0.00,Wunderground v.1.15,2013-03-17 06:35:00,
2013-03-17 02:40:00,50.4,47.6,29.87,SSW,204,0.0,0.0,90,0.00,,,0.00,Wunderground v.1.15,2013-03-17 06:40:00,
2013-03-17 02:50:00,50.2,47.4,29.88,SSW,204,0.0,0.0,90,0.00,,,0.00,Wunderground v.1.15,2013-03-17 06:50:00,
2013-03-17 02:55:00,50.5,47.7,29.88,SSW,204,0.0,0.0,90,0.00,,,0.00,Wunderground v.1.15,2013-03-17 06:55:00,
2013-03-17 03:00:00,50.5,47.7,29.89,SSW,204,0.0,0.0,90,0.00,,,0.00,Wunderground v.1.15,2013-03-17 07:00:00,
2013-03-17 03:05:00,50.4,47.6,29.88,SSW,204,0.0,0.0,90,0.00,,,0.00,Wunderground v.1.15,2013-03-17 07:05:00,
2013-03-17 03:10:00,50.2,47.7,29.89,SSW,204,0.0,0.0,91,0.00,,,0.00,Wunderground v.1.15,2013-03-17 07:10:00,
2013-03-17 03:20:00,50.5,48.0,29.88,SSW,204,0.0,0.0,91,0.00,,,0.00,Wunderground v.1.15,2013-03-17 07:20:00,
2013-03-17 03:30:00,50.5,48.0,29.88,SSW,204,0.0,0.0,91,0.00,,,0.00,Wunderground v.1.15,2013-03-17 07:30:00,
2013-03-17 03:40:00,50.2,48.0,29.88,SSW,204,0.0,0.0,92,0.00,,,0.00,Wunderground v.1.15,2013-03-17 07:40:00,
2013-03-17 03:50:00,50.2,48.3,29.88,SSW,204,0.0,0.0,93,0.00,,,0.00,Wunderground v.1.15,2013-03-17 07:50:00,
2013-03-17 04:00:00,50.2,48.5,29.87,SSW,204,0.0,0.0,94,0.00,,,0.00,Wunderground v.1.15,2013-03-17 08:00:00,
2013-03-17 04:10:00,50.4,48.5,29.87,SSW,204,0.0,0.0,93,0.00,,,0.00,Wunderground v.1.15,2013-03-17 08:10:00,
2013-03-17 04:20:00,50.2,48.3,29.87,SSW,204,0.0,0.0,93,0.00,,,0.00,Wunderground v.1.15,2013-03-17 08:20:00,
2013-03-17 04:30:00,50.2,48.5,29.87,SSW,204,0.0,0.0,94,0.00,,,0.00,Wunderground v.1.15,2013-03-17 08:30:00,
2013-03-17 04:40:00,49.9,48.2,29.86,SSW,204,0.0,0.0,94,0.00,,,0.00,Wunderground v.1.15,2013-03-17 08:40:00,
2013-03-17 04:50:00,49.8,48.1,29.86,SSW,204,0.0,0.0,94,0.00,,,0.00,Wunderground v.1.15,2013-03-17 08:50:00,
2013-03-17 05:00:00,49.6,48.2,29.86,SSW,204,0.0,0.0,95,0.00,,,0.00,Wunderground v.1.15,2013-03-17 09:00:00,
2013-03-17 05:05:00,49.5,48.1,29.87,SSW,204,0.0,0.0,95,0.00,,,0.00,Wunderground v.1.15,2013-03-17 09:05:00,
2013-03-17 05:15:00,49.2,47.8,29.88,SSW,204,0.0,0.0,95,0.00,,,0.00,Wunderground v.1.15,2013-03-17 09:15:00,
2013-03-17 05:20:00,49.2,48.1,29.88,SSW,204,0.0,0.0,96,0.00,,,0.01,Wunderground v.1.15,2013-03-17 09:20:00,
2013-03-17 05:30:00,49.2,48.1,29.89,SSW,204,0.0,0.0,96,0.00,,,0.01,Wunderground v.1.15,2013-03-17 09:30:00,
2013-03-17 05:40:00,49.5,48.4,29.88,SSW,204,0.0,0.0,96,0.00,,,0.01,Wunderground v.1.15,2013-03-17 09:40:00,
2013-03-17 05:45:00,49.6,48.5,29.89,SSW,204,0.0,0.0,96,0.00,,,0.01,Wunderground v.1.15,2013-03-17 09:45:00,
2013-03-17 05:50:00,49.6,48.5,29.89,SSW,204,0.0,0.0,96,0.00,,,0.01,Wunderground v.1.15,2013-03-17 09:50:00,
2013-03-17 06:00:00,49.6,48.5,29.90,SSW,204,0.0,0.0,96,0.00,,,0.01,Wunderground v.1.15,2013-03-17 10:00:00,
2013-03-17 06:10:00,50.1,49.0,29.90,SSW,204,0.0,0.0,96,0.00,,,0.01,Wunderground v.1.15,2013-03-17 10:10:00,
2013-03-17 06:15:00,50.1,48.7,29.90,SSW,204,0.0,0.0,95,0.00,,,0.01,Wunderground v.1.15,2013-03-17 10:15:00,
2013-03-17 06:20:00,50.1,48.7,29.90,SSW,204,0.0,0.0,95,0.00,,,0.01,Wunderground v.1.15,2013-03-17 10:20:00,
2013-03-17 06:30:00,49.9,48.5,29.90,SSW,204,0.0,0.0,95,0.00,,,0.01,Wunderground v.1.15,2013-03-17 10:30:00,
2013-03-17 06:40:00,49.8,48.4,29.90,SSW,204,0.0,0.0,95,0.00,,,0.02,Wunderground v.1.15,2013-03-17 10:40:00,
2013-03-17 06:45:00,49.8,48.4,29.91,SSW,204,0.0,0.0,95,0.00,,,0.02,Wunderground v.1.15,2013-03-17 10:45:00,
2013-03-17 06:50:00,49.8,48.4,29.91,SSW,204,0.0,0.0,95,0.04,,,0.03,Wunderground v.1.15,2013-03-17 10:50:00,
2013-03-17 07:00:00,49.6,48.5,29.91,SSW,204,0.0,0.0,96,0.04,,,0.03,Wunderground v.1.15,2013-03-17 11:00:00,
2013-03-17 07:10:00,49.5,48.4,29.92,SSW,204,0.0,0.0,96,0.00,,,0.04,Wunderground v.1.15,2013-03-17 11:10:00,
2013-03-17 07:15:00,49.4,48.3,29.93,SW,217,0.0,0.0,96,0.00,,,0.04,Wunderground v.1.15,2013-03-17 11:15:00,
2013-03-17 07:20:00,49.2,48.1,29.93,SW,217,0.0,0.0,96,0.00,,,0.04,Wunderground v.1.15,2013-03-17 11:20:00,
2013-03-17 07:30:00,49.1,48.0,29.92,SW,217,0.0,0.0,96,0.05,,,0.05,Wunderground v.1.15,2013-03-17 11:30:00,
2013-03-17 07:40:00,48.9,47.8,29.93,SW,217,0.0,0.0,96,0.00,,,0.05,Wunderground v.1.15,2013-03-17 11:40:00,
2013-03-17 07:50:00,48.8,48.0,29.93,SW,217,0.0,0.0,97,0.00,,,0.05,Wunderground v.1.15,2013-03-17 11:50:00,
2013-03-17 07:55:00,48.6,47.8,29.94,SW,217,0.0,0.0,97,0.00,,,0.05,Wunderground v.1.15,2013-03-17 11:55:00,
2013-03-17 08:00:00,48.6,47.8,29.94,SW,217,0.0,0.0,97,0.00,,,0.06,Wunderground v.1.15,2013-03-17 12:00:00,
2013-03-17 08:10:00,48.5,47.7,29.94,SW,217,0.0,0.0,97,0.13,,,0.08,Wunderground v.1.15,2013-03-17 12:10:00,
2013-03-17 08:20:00,48.5,47.7,29.94,SW,217,0.0,0.0,97,0.04,,,0.08,Wunderground v.1.15,2013-03-17 12:20:00,
2013-03-17 08:30:00,48.3,47.5,29.95,SW,217,0.0,0.0,97,0.00,,,0.08,Wunderground v.1.15,2013-03-17 12:30:00,
2013-03-17 08:35:00,48.3,47.5,29.95,SW,217,0.0,0.0,97,0.00,,,0.08,Wunderground v.1.15,2013-03-17 12:35:00,
2013-03-17 08:45:00,48.2,47.7,29.95,SW,217,0.0,0.0,98,0.00,,,0.09,Wunderground v.1.15,2013-03-17 12:45:00,
2013-03-17 08:50:00,48.2,47.7,29.95,SW,217,0.0,0.0,98,0.00,,,0.09,Wunderground v.1.15,2013-03-17 12:50:00,
2013-03-17 09:00:00,48.2,47.7,29.95,SW,217,0.0,0.0,98,0.00,,,0.09,Wunderground v.1.15,2013-03-17 13:00:00,
2013-03-17 09:10:00,48.2,47.7,29.95,SW,217,0.0,0.0,98,0.00,,,0.09,Wunderground v.1.15,2013-03-17 13:10:00,
2013-03-17 09:20:00,48.2,47.7,29.96,SW,217,0.0,0.0,98,0.00,,,0.09,Wunderground v.1.15,2013-03-17 13:20:00,
2013-03-17 09:30:00,48.2,47.7,29.95,SW,217,0.0,0.0,98,0.00,,,0.09,Wunderground v.1.15,2013-03-17 13:30:00,
2013-03-17 09:35:00,48.2,47.7,29.96,SW,217,0.0,0.0,98,0.00,,,0.09,Wunderground v.1.15,2013-03-17 13:35:00,
2013-03-17 09:45:00,48.2,47.7,29.95,SW,217,0.0,0.0,98,0.00,,,0.09,Wunderground v.1.15,2013-03-17 13:45:00,
2013-03-17 09:50:00,48.2,47.7,29.95,SW,217,0.0,0.0,98,0.00,,,0.09,Wunderground v.1.15,2013-03-17 13:50:00,
2013-03-17 10:00:00,48.2,47.7,29.96,SW,235,0.0,0.0,98,0.00,,,0.09,Wunderground v.1.15,2013-03-17 14:00:00,
2013-03-17 10:10:00,48.2,47.7,29.96,SW,235,0.0,0.0,98,0.00,,,0.09,Wunderground v.1.15,2013-03-17 14:10:00,
2013-03-17 10:15:00,48.2,47.7,29.96,WSW,238,0.0,0.0,98,0.00,,,0.09,Wunderground v.1.15,2013-03-17 14:15:00,
2013-03-17 10:20:00,48.2,47.7,29.96,NNW,344,0.0,0.0,98,0.00,,,0.09,Wunderground v.1.15,2013-03-17 14:20:00,
2013-03-17 10:30:00,48.2,47.7,29.96,NNW,344,0.0,0.0,98,0.00,,,0.09,Wunderground v.1.15,2013-03-17 14:30:00,
2013-03-17 10:40:00,48.3,47.8,29.97,NNW,344,0.0,0.0,98,0.00,,,0.09,Wunderground v.1.15,2013-03-17 14:40:00,
2013-03-17 10:50:00,48.5,48.0,29.97,NNW,344,0.0,0.0,98,0.00,,,0.09,Wunderground v.1.15,2013-03-17 14:50:00,
2013-03-17 11:00:00,48.6,48.1,29.97,NNW,344,0.0,0.0,98,0.00,,,0.09,Wunderground v.1.15,2013-03-17 15:00:00,
2013-03-17 11:05:00,48.6,47.8,29.97,NNW,344,0.0,0.0,97,0.00,,,0.09,Wunderground v.1.15,2013-03-17 15:05:00,
2013-03-17 11:10:00,48.6,47.8,29.98,NNW,344,0.0,0.0,97,0.00,,,0.09,Wunderground v.1.15,2013-03-17 15:10:00,
2013-03-17 11:20:00,48.8,48.0,29.98,NNW,344,0.0,0.0,97,0.00,,,0.09,Wunderground v.1.15,2013-03-17 15:20:00,
2013-03-17 11:25:00,48.9,48.1,29.98,NNW,344,0.0,0.0,97,0.00,,,0.09,Wunderground v.1.15,2013-03-17 15:25:00,
2013-03-17 11:30:00,49.1,48.0,29.98,NNW,344,0.0,0.0,96,0.00,,,0.09,Wunderground v.1.15,2013-03-17 15:30:00,
2013-03-17 11:35:00,49.2,48.1,29.98,NNW,344,0.0,0.0,96,0.00,,,0.09,Wunderground v.1.15,2013-03-17 15:35:00,
2013-03-17 11:45:00,49.2,47.8,29.98,NNW,344,1.0,1.0,95,0.00,,,0.09,Wunderground v.1.15,2013-03-17 15:45:00,
2013-03-17 11:50:00,49.2,47.5,29.97,North,350,1.0,1.0,94,0.00,,,0.09,Wunderground v.1.15,2013-03-17 15:50:00,
2013-03-17 12:00:00,49.2,47.3,29.97,North,5,1.0,3.0,93,0.00,,,0.09,Wunderground v.1.15,2013-03-17 16:00:00,
2013-03-17 12:10:00,49.2,47.0,29.97,North,355,1.0,1.0,92,0.00,,,0.09,Wunderground v.1.15,2013-03-17 16:10:00,
2013-03-17 12:20:00,49.5,47.0,29.97,NNE,15,1.0,1.0,91,0.00,,,0.09,Wunderground v.1.15,2013-03-17 16:20:00,
2013-03-17 12:25:00,49.6,47.1,29.97,NNE,15,0.0,1.0,91,0.00,,,0.09,Wunderground v.1.15,2013-03-17 16:25:00,
2013-03-17 12:30:00,49.8,47.0,29.97,NNE,16,1.0,5.0,90,0.00,,,0.09,Wunderground v.1.15,2013-03-17 16:30:00,
2013-03-17 12:40:00,50.4,47.3,29.96,North,9,2.0,2.0,89,0.00,,,0.09,Wunderground v.1.15,2013-03-17 16:40:00,
2013-03-17 12:50:00,51.1,47.4,29.96,NNE,29,2.0,2.0,87,0.00,,,0.09,Wunderground v.1.15,2013-03-17 16:50:00,
2013-03-17 12:55:00,51.3,47.3,29.95,NNE,32,3.0,3.0,86,0.00,,,0.09,Wunderground v.1.15,2013-03-17 16:55:00,
2013-03-17 13:00:00,51.6,47.9,29.96,NNE,14,3.0,4.0,87,0.00,,,0.09,Wunderground v.1.15,2013-03-17 17:00:00,
2013-03-17 13:10:00,51.6,47.5,29.95,NE,49,2.0,2.0,86,0.00,,,0.09,Wunderground v.1.15,2013-03-17 17:10:00,
2013-03-17 13:20:00,52.0,47.9,29.95,NE,35,3.0,3.0,86,0.00,,,0.09,Wunderground v.1.15,2013-03-17 17:20:00,
2013-03-17 13:25:00,52.2,48.1,29.95,NE,40,3.0,4.0,86,0.00,,,0.09,Wunderground v.1.15,2013-03-17 17:25:00,
2013-03-17 13:30:00,52.3,47.9,29.94,NNE,15,3.0,3.0,85,0.00,,,0.09,Wunderground v.1.15,2013-03-17 17:30:00,
2013-03-17 13:40:00,52.8,48.4,29.95,NNE,26,2.0,4.0,85,0.00,,,0.09,Wunderground v.1.15,2013-03-17 17:40:00,
2013-03-17 13:50:00,53.1,48.4,29.95,North,10,2.0,3.0,84,0.00,,,0.09,Wunderground v.1.15,2013-03-17 17:50:00,
2013-03-17 14:00:00,53.1,48.4,29.94,NW,318,2.0,2.0,84,0.00,,,0.09,Wunderground v.1.15,2013-03-17 18:00:00,
2013-03-17 14:10:00,52.6,47.6,29.94,North,355,2.0,2.0,83,0.00,,,0.09,Wunderground v.1.15,2013-03-17 18:10:00,
2013-03-17 14:20:00,52.9,48.2,29.93,North,355,1.0,1.0,84,0.00,,,0.09,Wunderground v.1.15,2013-03-17 18:20:00,
2013-03-17 14:30:00,53.3,48.9,29.93,North,355,1.0,1.0,85,0.00,,,0.09,Wunderground v.1.15,2013-03-17 18:30:00,
2013-03-17 14:35:00,53.6,48.6,29.92,NW,324,0.0,1.0,83,0.00,,,0.09,Wunderground v.1.15,2013-03-17 18:35:00,
2013-03-17 14:45:00,54.2,48.5,29.92,NNW,340,1.0,5.0,81,0.00,,,0.09,Wunderground v.1.15,2013-03-17 18:45:00,
2013-03-17 14:55:00,54.4,49.0,29.91,NNW,348,1.0,4.0,82,0.00,,,0.09,Wunderground v.1.15,2013-03-17 18:55:00,
2013-03-17 15:05:00,54.8,49.4,29.91,NE,44,4.0,5.0,82,0.00,,,0.09,Wunderground v.1.15,2013-03-17 19:05:00,
2013-03-17 15:15:00,54.7,50.0,29.90,NNE,33,6.0,8.0,84,0.00,,,0.09,Wunderground v.1.15,2013-03-17 19:15:00,
2013-03-17 15:20:00,54.7,49.6,29.90,ENE,59,7.0,9.0,83,0.00,,,0.09,Wunderground v.1.15,2013-03-17 19:20:00,
2013-03-17 15:25:00,54.5,49.4,29.90,NNE,25,8.0,10.0,83,0.00,,,0.09,Wunderground v.1.15,2013-03-17 19:25:00,
2013-03-17 15:35:00,54.4,49.7,29.90,NE,55,8.0,9.0,84,0.00,,,0.09,Wunderground v.1.15,2013-03-17 19:35:00,
2013-03-17 15:45:00,54.2,49.1,29.90,NE,51,9.0,15.0,83,0.00,,,0.09,Wunderground v.1.15,2013-03-17 19:45:00,
2013-03-17 15:55:00,53.5,48.8,29.90,NE,56,10.0,10.0,84,0.00,,,0.09,Wunderground v.1.15,2013-03-17 19:55:00,
2013-03-17 16:00:00,53.5,48.8,29.90,NNE,21,9.0,9.0,84,0.00,,,0.09,Wunderground v.1.15,2013-03-17 20:00:00,
2013-03-17 16:10:00,53.2,48.5,29.91,NE,36,8.0,8.0,84,0.00,,,0.09,Wunderground v.1.15,2013-03-17 20:10:00,
2013-03-17 16:20:00,52.8,48.1,29.90,NNE,30,9.0,9.0,84,0.00,,,0.09,Wunderground v.1.15,2013-03-17 20:20:00,
2013-03-17 16:30:00,52.2,47.8,29.90,NE,53,8.0,13.0,85,0.00,,,0.09,Wunderground v.1.15,2013-03-17 20:30:00,
2013-03-17 16:40:00,51.9,47.8,29.91,NE,36,8.0,8.0,86,0.00,,,0.09,Wunderground v.1.15,2013-03-17 20:40:00,
2013-03-17 16:45:00,51.7,47.6,29.91,NE,46,7.0,8.0,86,0.00,,,0.09,Wunderground v.1.15,2013-03-17 20:45:00,
2013-03-17 16:50:00,51.3,47.3,29.91,ENE,58,8.0,8.0,86,0.00,,,0.09,Wunderground v.1.15,2013-03-17 20:50:00,
2013-03-17 16:55:00,51.0,47.0,29.91,North,351,8.0,8.0,86,0.00,,,0.09,Wunderground v.1.15,2013-03-17 20:55:00,
2013-03-17 17:05:00,50.7,47.0,29.91,NNE,31,5.0,8.0,87,0.00,,,0.09,Wunderground v.1.15,2013-03-17 21:05:00,
2013-03-17 17:15:00,50.4,46.7,29.92,NE,38,6.0,6.0,87,0.00,,,0.09,Wunderground v.1.15,2013-03-17 21:15:00,
2013-03-17 17:20:00,50.2,46.5,29.92,NE,48,6.0,7.0,87,0.00,,,0.09,Wunderground v.1.15,2013-03-17 21:20:00,
2013-03-17 17:30:00,49.9,46.5,29.92,NNE,33,7.0,10.0,88,0.00,,,0.09,Wunderground v.1.15,2013-03-17 21:30:00,
2013-03-17 17:35:00,49.9,46.5,29.91,NE,37,7.0,10.0,88,0.00,,,0.09,Wunderground v.1.15,2013-03-17 21:35:00,
2013-03-17 17:40:00,49.8,46.1,29.91,ENE,63,8.0,9.0,87,0.00,,,0.09,Wunderground v.1.15,2013-03-17 21:40:00,
2013-03-17 17:50:00,49.2,45.8,29.92,NE,42,10.0,10.0,88,0.00,,,0.09,Wunderground v.1.15,2013-03-17 21:50:00,
2013-03-17 17:55:00,48.8,45.7,29.92,NE,42,10.0,10.0,89,0.00,,,0.09,Wunderground v.1.15,2013-03-17 21:55:00,
2013-03-17 18:00:00,48.6,45.5,29.92,NE,45,10.0,10.0,89,0.00,,,0.09,Wunderground v.1.15,2013-03-17 22:00:00,
2013-03-17 18:05:00,48.5,45.7,29.92,NNE,32,9.0,10.0,90,0.00,,,0.09,Wunderground v.1.15,2013-03-17 22:05:00,
2013-03-17 18:10:00,48.3,45.5,29.92,NNE,22,8.0,8.0,90,0.00,,,0.09,Wunderground v.1.15,2013-03-17 22:10:00,
2013-03-17 18:15:00,48.2,45.4,29.92,North,5,7.0,9.0,90,0.00,,,0.09,Wunderground v.1.15,2013-03-17 22:15:00,
2013-03-17 18:20:00,48.2,45.4,29.92,NE,43,7.0,9.0,90,0.00,,,0.09,Wunderground v.1.15,2013-03-17 22:20:00,
2013-03-17 18:30:00,48.2,45.4,29.92,NE,34,7.0,7.0,90,0.00,,,0.09,Wunderground v.1.15,2013-03-17 22:30:00,
2013-03-17 18:35:00,48.2,45.4,29.92,NNE,22,7.0,7.0,90,0.00,,,0.09,Wunderground v.1.15,2013-03-17 22:35:00,
2013-03-17 18:40:00,48.2,45.4,29.92,NNE,28,7.0,7.0,90,0.00,,,0.09,Wunderground v.1.15,2013-03-17 22:40:00,
2013-03-17 18:50:00,48.0,45.2,29.92,NNE,17,7.0,7.0,90,0.00,,,0.09,Wunderground v.1.15,2013-03-17 22:50:00,
2013-03-17 19:00:00,47.9,45.1,29.93,NE,39,7.0,9.0,90,0.00,,,0.09,Wunderground v.1.15,2013-03-17 23:00:00,
2013-03-17 19:10:00,47.7,44.9,29.93,NNE,26,8.0,8.0,90,0.00,,,0.09,Wunderground v.1.15,2013-03-17 23:10:00,
2013-03-17 19:25:00,47.6,44.8,29.93,NNE,30,6.0,7.0,90,0.00,,,0.09,Wunderground v.1.15,2013-03-17 23:25:00,
2013-03-17 19:30:00,47.6,44.8,29.94,NE,42,6.0,7.0,90,0.00,,,0.09,Wunderground v.1.15,2013-03-17 23:30:00,
2013-03-17 19:35:00,47.4,44.6,29.94,NNE,32,5.0,9.0,90,0.00,,,0.09,Wunderground v.1.15,2013-03-17 23:35:00,
2013-03-17 19:40:00,47.4,44.6,29.94,NE,50,6.0,9.0,90,0.00,,,0.09,Wunderground v.1.15,2013-03-17 23:40:00,
2013-03-17 19:50:00,47.4,44.3,29.95,NE,35,7.0,8.0,89,0.00,,,0.09,Wunderground v.1.15,2013-03-17 23:50:00,
2013-03-17 19:55:00,47.4,44.3,29.95,NE,37,6.0,6.0,89,0.00,,,0.09,Wunderground v.1.15,2013-03-17 23:55:00,
2013-03-17 20:00:00,47.3,44.2,29.95,NE,56,6.0,6.0,89,0.00,,,0.09,Wunderground v.1.15,2013-03-18 00:00:00,
2013-03-17 20:05:00,47.3,44.2,29.95,NNE,32,6.0,7.0,89,0.00,,,0.09,Wunderground v.1.15,2013-03-18 00:05:00,
2013-03-17 20:15:00,47.0,44.2,29.97,NE,37,7.0,10.0,90,0.00,,,0.09,Wunderground v.1.15,2013-03-18 00:15:00,
2013-03-17 20:20:00,46.8,44.0,29.96,NE,39,7.0,8.0,90,0.00,,,0.09,Wunderground v.1.15,2013-03-18 00:20:00,
2013-03-17 20:30:00,46.7,43.9,29.96,NE,37,7.0,7.0,90,0.00,,,0.09,Wunderground v.1.15,2013-03-18 00:30:00,
2013-03-17 20:40:00,46.4,43.6,29.97,NE,46,7.0,7.0,90,0.00,,,0.09,Wunderground v.1.15,2013-03-18 00:40:00,
2013-03-17 20:45:00,46.4,43.6,29.96,NNE,15,8.0,10.0,90,0.00,,,0.09,Wunderground v.1.15,2013-03-18 00:45:00,
2013-03-17 20:55:00,46.0,43.2,29.97,NE,50,8.0,9.0,90,0.00,,,0.09,Wunderground v.1.15,2013-03-18 00:55:00,
2013-03-17 21:00:00,45.7,42.9,29.96,ENE,63,9.0,11.0,90,0.00,,,0.09,Wunderground v.1.15,2013-03-18 01:00:00,
2013-03-17 21:10:00,44.9,42.4,29.97,NE,44,8.0,9.0,91,0.00,,,0.09,Wunderground v.1.15,2013-03-18 01:10:00,
2013-03-17 21:20:00,44.3,41.8,29.97,NE,35,8.0,8.0,91,0.00,,,0.09,Wunderground v.1.15,2013-03-18 01:20:00,
2013-03-17 21:30:00,44.2,41.7,29.97,NE,36,9.0,10.0,91,0.00,,,0.09,Wunderground v.1.15,2013-03-18 01:30:00,
2013-03-17 21:35:00,44.2,41.7,29.98,NE,44,8.0,10.0,91,0.00,,,0.09,Wunderground v.1.15,2013-03-18 01:35:00,
2013-03-17 21:45:00,44.3,41.6,29.98,NE,34,8.0,8.0,90,0.00,,,0.09,Wunderground v.1.15,2013-03-18 01:45:00,
2013-03-17 21:50:00,44.5,41.7,29.98,NE,42,8.0,8.0,90,0.00,,,0.09,Wunderground v.1.15,2013-03-18 01:50:00,
2013-03-17 21:55:00,44.3,41.3,29.98,NE,38,8.0,8.0,89,0.00,,,0.09,Wunderground v.1.15,2013-03-18 01:55:00,
2013-03-17 22:00:00,44.2,41.2,29.99,NE,49,8.0,9.0,89,0.00,,,0.09,Wunderground v.1.15,2013-03-18 02:00:00,
2013-03-17 22:10:00,43.9,40.9,29.99,NE,55,9.0,9.0,89,0.00,,,0.09,Wunderground v.1.15,2013-03-18 02:10:00,
2013-03-17 22:20:00,43.8,40.8,30.00,NE,38,8.0,8.0,89,0.00,,,0.09,Wunderground v.1.15,2013-03-18 02:20:00,
2013-03-17 22:30:00,43.5,40.5,30.00,NE,46,7.0,8.0,89,0.00,,,0.09,Wunderground v.1.15,2013-03-18 02:30:00,
2013-03-17 22:40:00,43.3,40.8,30.00,NE,51,9.0,10.0,91,0.00,,,0.09,Wunderground v.1.15,2013-03-18 02:40:00,
2013-03-17 22:50:00,43.3,40.3,30.01,NNE,28,9.0,9.0,89,0.00,,,0.09,Wunderground v.1.15,2013-03-18 02:50:00,
2013-03-17 22:55:00,43.2,40.2,30.01,ENE,70,8.0,9.0,89,0.00,,,0.09,Wunderground v.1.15,2013-03-18 02:55:00,
2013-03-17 23:00:00,43.2,40.2,30.00,NNE,33,7.0,12.0,89,0.00,,,0.09,Wunderground v.1.15,2013-03-18 03:00:00,
2013-03-17 23:10:00,42.9,39.6,30.00,NE,47,10.0,10.0,88,0.00,,,0.09,Wunderground v.1.15,2013-03-18 03:10:00,
2013-03-17 23:20:00,42.6,39.3,30.00,NNE,24,9.0,9.0,88,0.00,,,0.09,Wunderground v.1.15,2013-03-18 03:20:00,
2013-03-17 23:25:00,42.5,39.5,30.00,NE,40,7.0,11.0,89,0.00,,,0.09,Wunderground v.1.15,2013-03-18 03:25:00,
2013-03-17 23:30:00,42.3,39.0,30.00,NE,40,8.0,11.0,88,0.00,,,0.09,Wunderground v.1.15,2013-03-18 03:30:00,
2013-03-17 23:40:00,42.2,38.9,30.00,NE,48,9.0,13.0,88,0.00,,,0.09,Wunderground v.1.15,2013-03-18 03:40:00,
2013-03-17 23:45:00,42.1,39.1,30.00,NNE,26,10.0,13.0,89,0.00,,,0.09,Wunderground v.1.15,2013-03-18 03:45:00,
2013-03-17 23:55:00,41.8,38.8,30.00,NE,36,10.0,10.0,89,0.00,,,0.09,Wunderground v.1.15,2013-03-18 03:55:00,